Flag for Germany Weather past 2 weeks in Lahr, Baden-Württemberg, Germany

Now
93 °F

Passing clouds.


Feels Like: 90 °F
Forecast: 65 / 88 °F
Wind: 2 mph from Northwest

Location: Lahr

Current Time: Aug 30, 2015 at 4:40:56 PM

Latest Report: Aug 30, 2015 at 4:00 PM


Visibility: 47 mi

Pressure: 30.00 "Hg

Humidity: 26%

Dew point: 53 °F

Location of LahrLocation

Historic Weather in Lahr — Graph

°F

Lahr temperature yesterday

Maximum temperature yesterday: 89 °F (at 5:00 PM)
Minimum temperature yesterday: 62 °F (at 4:00 AM)
Average temperature yesterday: 73 °F

Past Weeks' High & Low Weather Summary

 TemperatureHumidityPressure
High93 °F (Aug 30, 3:00 PM)100% (Aug 29, 5:00 AM)30.26 "Hg (Aug 29, 5:00 AM)
Low46 °F (Aug 18, 7:00 AM)26% (Aug 22, 5:00 PM)29.69 "Hg (Aug 24, 1:00 PM)
Average67 °F68%30.01 "Hg
* Reported Aug 15 3:00 PM — Aug 30 3:00 PM, Lahr, Weather by CustomWeather, © 2015

Note: Actual official high and low records may vary slightly from our data, if they occured in-between our weather recording intervals... More about our weather records

Advertising

Lahr weather history for previous 24 hours

 ConditionsComfort  
Time TempWeatherWind HumidityBarometerVisibility
3:00 PM
Sun, Aug 30
93 °FPassing clouds.3 mph29%30.02 "Hg47 mi
2:00 PM91 °FPassing clouds.2 mph31%30.04 "Hg47 mi
1:00 PM90 °FPassing clouds.3 mph32%30.06 "Hg47 mi
12:00 PM88 °FPassing clouds.5 mph37%30.08 "Hg47 mi
11:00 AM85 °FPassing clouds.5 mph39%30.09 "Hg43 mi
10:00 AM80 °FSunny.3 mph57%30.09 "Hg28 mi
9:00 AM74 °FSunny.2 mph73%30.09 "Hg22 mi
8:00 AM69 °FSunny.2 mph86%30.09 "Hg16 mi
7:00 AM66 °FSunny.2 mph90%30.09 "Hg10 mi
6:00 AM67 °FClear.3 mph91%30.09 "Hg13 mi
5:00 AM67 °FClear.2 mph90%30.08 "Hg14 mi
4:00 AM67 °FPassing clouds.12 mph91%30.08 "Hg1 mi
3:00 AM68 °FClear.3 mph90%30.07 "Hg13 mi
2:00 AM67 °FClear.1 mph89%30.07 "Hg12 mi
1:00 AM69 °FClear.2 mph89%30.08 "Hg14 mi
12:00 AM72 °FClear.2 mph78%30.08 "Hg25 mi
11:00 PM
Sat, Aug 29
72 °FClear.1 mph80%30.07 "Hg22 mi
10:00 PM75 °FClear.1 mph72%30.06 "Hg28 mi
9:00 PM77 °FPassing clouds.1 mph68%30.05 "Hg31 mi
8:00 PM82 °FScattered clouds.2 mph59%30.03 "Hg34 mi
7:00 PM87 °FScattered clouds.5 mph47%30.03 "Hg34 mi
6:00 PM89 °FScattered clouds.3 mph46%30.04 "Hg31 mi
5:00 PM89 °FPassing clouds.3 mph39%30.06 "Hg31 mi
4:00 PM89 °FScattered clouds.3 mph45%30.07 "Hg28 mi
Weather by CustomWeather, © 2015

See weather overviewHow to use our weather pages